Vero Beach, FL

11:28 AM EDT on July 26, 2016 (GMT -0400)
Vero Beach Municipal

Weather History for KVRB - September, 2013

Change the Weather History Date:

Tuesday, September 17, 2013

  Actual Average Record
Temperature  
Mean Temperature 79 °F 81 °F  
Max Temperature 86 °F 88 °F 97 °F (1996)
Min Temperature 72 °F 74 °F 66 °F (2001)
Degree Days  
Heating Degree Days 0 0  
Month to date heating degree days 0 0  
Since 1 July heating degree days 0 0  
Cooling Degree Days 14 16  
Month to date cooling degree days 266 272  
Year to date cooling degree days 2672 2570  
Growing Degree Days 28 (Base 50)    
Moisture  
Dew Point 74 °F    
Average Humidity 87    
Maximum Humidity 100    
Minimum Humidity 74    
Precipitation  
Precipitation 1.50 in 0.24 in 3.43 in (2000)
Month to date precipitation 4.09 3.84  
Year to date precipitation 31.77 38.54  
Sea Level Pressure  
Sea Level Pressure 30.01 in    
Wind  
Wind Speed 8 mph (ENE)    
Max Wind Speed 24 mph    
Max Gust Speed 30 mph    
Visibility 7 miles    
Events Fog , Rain    
T = Trace of Precipitation, MM = Missing Value Source: NWS Daily Summary

Daily Weather History Graph

Daily Weather History Graph

Search for Another Location

Airport or City:

Trip Planner

Search our weather history database for the weather conditions in past years. The results will help you decide how hot, cold, wet, or windy it might be!

Date:

Astronomy

Sep. 17, 2013 Rise Set
Actual Time 7:07 AM EDT 7:23 PM EDT
Civil Twilight 6:44 AM EDT 7:47 PM EDT
Nautical Twilight 6:17 AM EDT 8:14 PM EDT
Astronomical Twilight 5:49 AM EDT 8:41 PM EDT
Moon 6:05 PM EDT (9/17) 5:08 AM EDT (9/17)
Length of Visible Light 13h 02m
Length of Day
12h 15m
Waxing Gibbous, 96% of the Moon is Illuminated
Sep 17
Waxing Gibbous
Sep 19
Full
Sep 26
Last Quarter
Oct 4
New
Oct 11
First Quarter

Hourly Weather History & Observations

Time (EDT) Temp. Heat Index Dew Point Humidity Pressure Visibility Wind Dir Wind Speed Gust Speed Precip Events Conditions
12:53 AM 78.1 °F - 73.9 °F 87% 30.03 in 10.0 mi East 6.9 mph - N/A   Scattered Clouds
1:53 AM 78.1 °F - 73.9 °F 87% 29.99 in 10.0 mi East 5.8 mph - N/A   Partly Cloudy
2:53 AM 77.0 °F - 73.9 °F 90% 29.99 in 10.0 mi East 3.5 mph - N/A   Partly Cloudy
3:44 AM 75.2 °F - 73.4 °F 94% 29.99 in 10.0 mi Calm Calm - N/A   Mostly Cloudy
3:53 AM 75.0 °F - 73.9 °F 96% 29.99 in 10.0 mi ENE 3.5 mph - N/A   Mostly Cloudy
4:18 AM 77.0 °F - 73.4 °F 89% 29.99 in 10.0 mi East 4.6 mph - N/A   Scattered Clouds
4:33 AM 77.0 °F - 73.4 °F 89% 29.99 in 10.0 mi East 4.6 mph - N/A   Mostly Cloudy
4:44 AM 78.8 °F - 75.2 °F 89% 29.99 in 10.0 mi East 6.9 mph - N/A   Scattered Clouds
4:53 AM 78.1 °F - 73.9 °F 87% 29.99 in 10.0 mi East 5.8 mph - N/A   Scattered Clouds
5:53 AM 77.0 °F - 75.0 °F 94% 30.00 in 10.0 mi East 3.5 mph - N/A   Mostly Cloudy
6:14 AM 73.4 °F - 71.6 °F 94% 30.00 in 10.0 mi SSE 3.5 mph - 0.00 in   Mostly Cloudy
6:53 AM 73.0 °F - 70.0 °F 90% 30.01 in 5.0 mi NE 8.1 mph - 0.02 in Rain Rain
7:06 AM 71.6 °F - 71.6 °F 100% 30.02 in 2.0 mi NE 4.6 mph - 0.11 in Rain Heavy Rain
7:19 AM 73.4 °F - 71.6 °F 94% 30.02 in 10.0 mi NNW 6.9 mph - 0.13 in   Overcast
7:53 AM 73.0 °F - 73.0 °F 100% 30.02 in 10.0 mi NNW 3.5 mph - 0.13 in   Partly Cloudy
8:53 AM 77.0 °F - 75.0 °F 94% 30.04 in 10.0 mi North 4.6 mph - N/A   Partly Cloudy
9:09 AM 75.2 °F - 73.4 °F 94% 30.06 in 1.8 mi ESE 10.4 mph 19.6 mph 0.01 in Rain Heavy Rain
9:20 AM 73.4 °F - 73.4 °F 100% 30.06 in 3.0 mi ENE 6.9 mph - 0.15 in Rain Light Rain
9:53 AM 73.9 °F - 73.9 °F 100% 30.06 in 6.0 mi NNE 5.8 mph - 0.17 in Rain Light Rain
10:53 AM 79.0 °F - 75.0 °F 88% 30.06 in 10.0 mi North 9.2 mph - 0.03 in   Clear
11:53 AM 82.9 °F 90.2 °F 75.0 °F 77% 30.06 in 10.0 mi NNE 10.4 mph - N/A   Clear
12:53 PM 84.0 °F 91.9 °F 75.0 °F 74% 30.06 in 10.0 mi ENE 12.7 mph - N/A   Mostly Cloudy
1:53 PM 84.9 °F 94.1 °F 75.9 °F 74% 30.02 in 10.0 mi ENE 9.2 mph - N/A   Partly Cloudy
2:33 PM 77.0 °F - 73.4 °F 89% 30.02 in 0.5 mi East 15.0 mph - 0.00 in Fog , Rain Heavy Rain
2:53 PM 78.1 °F - 73.9 °F 87% 30.01 in 4.0 mi East 10.4 mph - 0.13 in   Overcast
3:31 PM 77.0 °F - 75.2 °F 94% 30.01 in 2.5 mi NE 13.8 mph 19.6 mph 0.03 in Rain Heavy Rain
3:36 PM 75.2 °F - 75.2 °F 100% 30.00 in 1.5 mi NNE 6.9 mph 19.6 mph 0.09 in Rain Heavy Rain
3:46 PM 75.2 °F - 73.4 °F 94% 30.00 in 2.0 mi NE 9.2 mph - 0.14 in Rain Rain
3:53 PM 75.0 °F - 73.9 °F 96% 30.00 in 2.0 mi NE 10.4 mph - 0.18 in Rain Rain
3:58 PM 75.2 °F - 73.4 °F 94% 30.00 in 4.0 mi ENE 9.2 mph - 0.01 in Rain Light Rain
4:53 PM 77.0 °F - 75.0 °F 94% 29.99 in 10.0 mi East 4.6 mph - 0.02 in Rain Light Rain
5:26 PM 78.8 °F - 77.0 °F 94% 29.98 in 8.0 mi Calm Calm - 0.01 in Rain Light Rain
5:48 PM 75.2 °F - 73.4 °F 94% 29.98 in 1.5 mi ENE 24.2 mph 29.9 mph 0.02 in Rain Rain
5:53 PM 73.0 °F - 72.0 °F 96% 29.99 in 0.5 mi East 13.8 mph 29.9 mph 0.18 in Rain Heavy Rain
6:08 PM 73.4 °F - 73.4 °F 100% 29.98 in 4.0 mi Calm Calm - 0.58 in Rain Heavy Rain
6:53 PM 73.9 °F - 73.9 °F 100% 29.98 in 4.0 mi West 3.5 mph - 0.62 in Rain Light Rain
7:00 PM 73.4 °F - 73.4 °F 100% 29.98 in 8.0 mi WSW 3.5 mph - 0.00 in Rain Light Rain
7:53 PM 75.0 °F - 75.0 °F 100% 29.97 in 10.0 mi North 3.5 mph - 0.02 in   Clear
8:53 PM 77.0 °F - 75.0 °F 94% 29.98 in 10.0 mi ENE 6.9 mph - N/A   Clear
9:53 PM 78.1 °F - 73.9 °F 87% 29.99 in 10.0 mi ENE 9.2 mph - N/A   Partly Cloudy
10:53 PM 79.0 °F - 75.0 °F 88% 30.00 in 10.0 mi East 10.4 mph - N/A   Partly Cloudy
11:53 PM 79.0 °F - 73.9 °F 84% 30.00 in 10.0 mi East 8.1 mph - N/A   Partly Cloudy